Hourly Data Report for January 03, 2004

All times are specified in Local Standard Time (LST). Add 1 hour to adjust for Daylight Saving Time where and when it is observed.

SHERBROOKE A
QUEBEC

45°26'00.000" N
71°41'00.000" W
241.40 m
7028124
71610
YSC

Download Data

Hourly Data (January 2004)
Hourly Data Report for January 3, 2004
TIME Temp Definition
°C
Dew Point Temp Definition
°C
Rel Hum Definition
%
Wind Dir Definition
10's deg

Wind Spd Definition
km/h
Visibility Definition
km
Stn Press Definition
kPa
Hmdx Definition


Wind Chill Definition


Weather Definition


00:00 -5.3 -7.4 85 7 6 15.0 98.94   -8  
01:00 -4.6 -6.8 85 8 11 15.0 98.88   -9  
02:00 -4.4 -6.6 85 8 9 15.0 98.80   -8  
03:00 -3.7 -5.9 85 5 6 15.0 98.72   -6  
04:00 -3.1 -5.2 85 7 7 15.0 98.56   -6  
05:00 -2.9 -5.0 85 5 6 15.0 98.56   -5  
06:00 -2.2 -4.4 85 7 6 15.0 98.49   -5  
07:00 -0.7 -3.3 83 11 15 15.0 98.39   -5  
08:00 -0.4 -3.6 79 11 11 24.1 98.29   -4 Cloudy
09:00 0.1 -2.3 84 10 13 4.8 98.28     Snow,Ice Pellets
10:00 0.6 -1.5 86 13 17 16.1 98.18     Rain
11:00 0.8 -1.0 88 10 9 19.3 98.02     Rain
12:00 0.9 -0.4 91 12 7 3.2 97.95     Rain,Drizzle,Fog
13:00 1.6 0.5 92 13 11 16.1 97.68     Cloudy
14:00 1.3 0.3 93   0 19.3 97.88     Drizzle
15:00 1.9 0.9 93 7 4 19.3 97.92     Cloudy
16:00 1.7 0.7 93   0 16.1 97.90     Cloudy
17:00 1.6 0.7 94   0 12.9 97.90     Cloudy
18:00 1.3 0.3 93   0 1.1 97.96      
19:00 1.5 0.7 94 32 4 0.5 97.96      
20:00 1.8 0.9 94   0 0.3 97.92      
21:00 1.5 0.5 93 31 6 0.5 97.88      
22:00 2.3 1.4 94 27 6 2.3 97.89      
23:00 2.0 1.0 93   0 1.0 97.88      

Notes on Data Quality.

Legend

  • E = Estimated
  • M = Missing
  • NA = Not Available
Date modified: